CW6666 Weather Reports


Display with metric or nautical units.
time (UTC)temp
F
wind
direction
speed
MPH
gust
MPH
rain 1hr
in
rain 24hr
in
rain mn
in
humidity
%
barometer
mb
20161211021021 84 55 18.0 19.0 0.00 0.00 0.00 82 1006.6
20161211020521 84 56 15.0 19.0 0.00 0.00 0.00 81 1006.6
20161211020022 85 49 17.0 17.0 0.00 0.00 0.00 81 1006.6
20161211015521 84 61 16.0 17.0 0.00 0.00 0.00 81 1006.7
20161211015021 84 59 16.0 17.0 0.00 0.00 0.00 80 1006.7
20161211014521 84 54 12.0 18.0 0.00 0.00 0.00 82 1006.7
20161211014022 84 61 16.0 18.0 0.00 0.00 0.00 81 1006.9
20161211013522 84 51 14.0 17.0 0.00 0.00 0.00 80 1006.9
20161211013021 84 59 17.0 18.0 0.00 0.00 0.00 81 1006.9
20161211012521 85 55 16.0 18.0 0.00 0.00 0.00 80 1007.1
20161211012021 85 53 14.0 17.0 0.00 0.00 0.00 81 1007.1
20161211011521 84 40 13.0 16.0 0.00 0.00 0.00 81 1007.1
20161211011021 84 44 14.0 16.0 0.00 0.00 0.00 80 1007.3
20161211010522 85 59 13.0 18.0 0.00 0.00 0.00 80 1007.3
20161211010022 85 55 12.0 18.0 0.00 0.00 0.00 80 1007.3
20161211005521 85 54 13.0 18.0 0.00 0.00 0.00 80 1007.6
20161211005021 85 46 14.0 16.0 0.00 0.00 0.00 80 1007.6
20161211004521 85 48 11.0 17.0 0.00 0.00 0.00 83 1007.6
20161211004021 85 61 15.0 17.0 0.00 0.00 0.00 80 1007.7
20161211003522 85 53 13.0 17.0 0.00 0.00 0.00 82 1007.7
20161211003022 85 49 15.0 17.0 0.00 0.00 0.00 79 1007.7
20161211002522 85 58 13.0 17.0 0.00 0.00 0.00 80 1007.7
20161211002021 85 49 14.0 15.0 0.00 0.00 0.00 80 1007.7
20161211001522 85 49 12.0 15.0 0.00 0.00 0.00 81 1007.7
20161211001021 85 48 14.0 16.0 0.00 0.00 0.00 78 1007.8
20161211000521 85 44 12.0 16.0 0.00 0.00 0.00 80 1007.8
20161211000021 85 55 13.0 16.0 0.00 0.00 0.00 79 1007.8
20161210235521 85 56 13.0 16.0 0.00 0.00 0.00 78 1007.9
20161210235021 85 55 12.0 16.0 0.00 0.00 0.00 79 1007.9
20161210234521 85 55 13.0 16.0 0.00 0.00 0.00 80 1007.9
20161210234021 85 56 13.0 16.0 0.00 0.00 0.00 79 1008.1
20161210233522 85 56 13.0 15.0 0.00 0.00 0.00 79 1008.1
20161210233022 85 61 12.0 16.0 0.00 0.00 0.00 79 1008.1
20161210232521 84 58 14.0 16.0 0.00 0.00 0.00 78 1008.3
20161210232021 84 53 15.0 16.0 0.00 0.00 0.00 79 1008.3
20161210231521 84 63 16.0 16.0 0.00 0.00 0.00 79 1008.3
20161210231021 84 58 13.0 15.0 0.00 0.00 0.00 79 1008.3
20161210230521 84 58 13.0 15.0 0.00 0.00 0.00 82 1008.3
20161210230021 84 56 13.0 15.0 0.00 0.00 0.00 81 1008.3
20161210225521 84 59 15.0 16.0 0.00 0.00 0.00 81 1008.3
20161210225021 84 59 13.0 16.0 0.00 0.00 0.00 80 1008.3
20161210224521 84 50 14.0 16.0 0.00 0.00 0.00 82 1008.3
20161210224021 84 52 12.0 16.0 0.00 0.00 0.00 82 1008.2
20161210223521 84 65 13.0 16.0 0.00 0.00 0.00 81 1008.2
20161210223021 84 69 13.0 15.0 0.00 0.00 0.00 82 1008.2
20161210222521 84 53 14.0 15.0 0.00 0.00 0.00 82 1008.2
20161210222021 84 66 12.0 15.0 0.00 0.00 0.00 80 1008.2
20161210221521 84 63 13.0 15.0 0.00 0.00 0.00 83 1008.2
20161210221022 83 49 9.0 11.0 0.00 0.00 0.00 84 1008.2
20161210220522 83 38 11.0 12.0 0.00 0.00 0.00 84 1008.2
20161210220021 83 46 7.0 12.0 0.00 0.00 0.00 84 1008.2
20161210215521 83 45 11.0 12.0 0.00 0.00 0.00 83 1008.1
20161210215021 83 52 10.0 12.0 0.00 0.00 0.00 83 1008.1
20161210214521 83 44 11.0 13.0 0.00 0.00 0.00 83 1008.1
20161210214021 83 58 8.0 14.0 0.00 0.00 0.00 82 1007.7
20161210213521 83 57 9.0 14.0 0.00 0.00 0.00 83 1007.7
20161210213021 83 60 10.0 15.0 0.00 0.00 0.00 83 1007.7
20161210212521 83 57 12.0 15.0 0.00 0.00 0.00 83 1007.7
20161210212021 83 53 12.0 13.0 0.00 0.00 0.00 82 1007.7
20161210211521 82 47 13.0 15.0 0.00 0.00 0.00 83 1007.7
20161210211021 82 46 12.0 15.0 0.00 0.00 0.00 83 1007.7
20161210210521 82 44 11.0 15.0 0.00 0.00 0.00 82 1007.7
20161210210022 82 57 14.0 15.0 0.00 0.00 0.00 83 1007.7
20161210205521 82 49 13.0 15.0 0.00 0.00 0.00 82 1007.4
20161210205022 82 59 14.0 15.0 0.00 0.00 0.00 83 1007.4
20161210204521 82 55 15.0 16.0 0.00 0.00 0.00 84 1007.4
20161210204021 82 56 14.0 16.0 0.00 0.00 0.00 83 1007.2
20161210203521 82 56 13.0 16.0 0.00 0.00 0.00 82 1007.2
20161210203021 82 55 13.0 16.0 0.00 0.00 0.00 82 1007.2
20161210202521 82 67 13.0 15.0 0.00 0.00 0.00 83 1007.1
20161210202022 82 63 14.0 17.0 0.00 0.00 0.00 82 1007.1
20161210201521 82 49 14.0 17.0 0.00 0.00 0.00 82 1007.1
20161210201021 82 59 12.0 15.0 0.00 0.00 0.00 83 1006.8
20161210200521 82 50 12.0 15.0 0.00 0.00 0.00 81 1006.8
20161210200021 82 55 11.0 15.0 0.00 0.00 0.00 83 1006.8
20161210195522 82 59 13.0 15.0 0.00 0.00 0.00 83 1006.6
20161210195021 82 74 11.0 15.0 0.00 0.00 0.00 82 1006.6
20161210194521 83 60 11.0 14.0 0.00 0.00 0.00 83 1006.6
20161210194021 82 68 13.0 14.0 0.00 0.00 0.00 83 1006.3
20161210193521 82 71 9.0 13.0 0.00 0.00 0.00 83 1006.3
20161210193021 82 53 10.0 12.0 0.00 0.00 0.00 83 1006.3
20161210192521 82 57 11.0 13.0 0.00 0.00 0.00 84 1006.2
20161210192021 82 46 9.0 13.0 0.00 0.00 0.00 83 1006.2
20161210191521 82 60 10.0 11.0 0.00 0.00 0.00 83 1006.2
20161210191021 82 61 9.0 11.0 0.00 0.00 0.00 83 1006.1
20161210190521 82 67 8.0 11.0 0.00 0.00 0.00 83 1006.1
20161210190021 82 54 10.0 14.0 0.00 0.00 0.00 83 1006.1
20161210185521 82 71 9.0 14.0 0.00 0.00 0.00 84 1006.0
20161210185021 82 54 10.0 15.0 0.00 0.00 0.00 84 1006.0
20161210184521 82 65 9.0 15.0 0.00 0.00 0.00 82 1006.0
20161210184021 82 59 13.0 15.0 0.00 0.00 0.00 83 1005.9
20161210183521 82 69 13.0 15.0 0.00 0.00 0.00 83 1005.9
20161210183021 82 56 14.0 15.0 0.00 0.00 0.00 83 1005.9
20161210182521 82 63 12.0 13.0 0.00 0.00 0.00 83 1005.7
20161210182021 82 74 11.0 13.0 0.00 0.00 0.00 82 1005.7
20161210181521 82 69 11.0 14.0 0.00 0.00 0.00 83 1005.7
20161210181021 82 61 12.0 14.0 0.00 0.00 0.00 83 1005.6
20161210180521 82 59 11.0 13.0 0.00 0.00 0.00 82 1005.6
20161210180021 82 72 11.0 14.0 0.00 0.00 0.00 82 1005.6
20161210175521 82 69 12.0 15.0 0.00 0.00 0.00 82 1005.6
20161210175021 82 77 11.0 15.0 0.00 0.00 0.00 82 1005.6
20161210174521 82 57 11.0 15.0 0.00 0.00 0.00 83 1005.6
20161210174021 82 53 14.0 15.0 0.00 0.00 0.00 82 1005.5
20161210173521 82 60 11.0 15.0 0.00 0.00 0.00 82 1005.5
20161210173021 82 67 13.0 15.0 0.00 0.00 0.00 82 1005.5
20161210172521 82 68 10.0 15.0 0.00 0.00 0.00 82 1005.4
20161210172021 82 62 12.0 15.0 0.00 0.00 0.00 81 1005.4
20161210171521 82 58 13.0 15.0 0.00 0.00 0.00 81 1005.4
20161210171021 82 63 14.0 14.0 0.00 0.00 0.00 81 1005.6
20161210170521 82 60 11.0 14.0 0.00 0.00 0.00 83 1005.6
20161210170021 82 46 12.0 14.0 0.00 0.00 0.00 82 1005.6
20161210165521 82 53 10.0 14.0 0.00 0.00 0.00 84 1005.6
20161210165021 82 44 12.0 14.0 0.00 0.00 0.00 82 1005.6
20161210164522 82 61 10.0 14.0 0.00 0.00 0.00 81 1005.6
20161210164021 82 51 12.0 16.0 0.00 0.00 0.00 82 1005.6
20161210163521 82 57 12.0 16.0 0.00 0.00 0.00 82 1005.6
20161210163021 82 51 12.0 16.0 0.00 0.00 0.00 82 1005.6
20161210162521 82 49 13.0 16.0 0.00 0.00 0.00 83 1005.7
20161210162021 82 51 11.0 16.0 0.00 0.00 0.00 83 1005.7
20161210161521 82 58 12.0 16.0 0.00 0.00 0.00 83 1005.7
20161210161021 82 61 14.0 16.0 0.00 0.00 0.00 83 1006.1
20161210160521 82 66 13.0 16.0 0.00 0.00 0.00 84 1006.1
20161210160021 82 57 12.0 15.0 0.00 0.00 0.00 84 1006.1
20161210155521 82 69 11.0 14.0 0.00 0.00 0.00 83 1006.2
20161210155021 82 70 9.0 16.0 0.00 0.00 0.00 83 1006.2
20161210154521 82 67 13.0 16.0 0.00 0.00 0.00 82 1006.2
20161210154021 82 59 14.0 14.0 0.00 0.00 0.00 83 1006.5
20161210153521 82 64 10.0 14.0 0.00 0.00 0.00 84 1006.5
20161210153021 82 68 11.0 15.0 0.00 0.00 0.00 82 1006.5
20161210152521 82 63 13.0 16.0 0.00 0.00 0.00 83 1006.7
20161210152021 82 55 12.0 16.0 0.00 0.00 0.00 83 1006.7
20161210151521 82 67 12.0 15.0 0.00 0.00 0.00 84 1006.7
20161210151021 82 78 10.0 14.0 0.00 0.00 0.00 84 1006.8
20161210150521 82 78 13.0 16.0 0.00 0.00 0.00 83 1006.8
20161210150021 82 61 13.0 16.0 0.00 0.00 0.00 83 1006.8
20161210145521 82 73 10.0 14.0 0.00 0.00 0.00 83 1006.8
20161210145021 82 76 12.0 17.0 0.00 0.00 0.00 83 1006.8
20161210144521 82 76 12.0 17.0 0.00 0.00 0.00 82 1006.8
20161210144021 82 68 11.0 15.0 0.00 0.00 0.00 83 1006.7
20161210143521 82 68 12.0 15.0 0.00 0.00 0.00 83 1006.7
20161210143021 82 69 11.0 15.0 0.00 0.00 0.00 83 1006.7
20161210142521 82 77 15.0 15.0 0.00 0.00 0.00 82 1006.8
20161210142021 82 74 12.0 17.0 0.00 0.00 0.00 83 1006.8
20161210141521 82 71 14.0 17.0 0.00 0.00 0.00 83 1006.8
20161210141021 82 72 11.0 15.0 0.00 0.00 0.00 83 1006.8
20161210140521 82 65 14.0 16.0 0.00 0.00 0.00 83 1006.8
20161210140021 82 63 12.0 16.0 0.00 0.00 0.00 83 1006.8
20161210135521 82 69 13.0 16.0 0.00 0.00 0.00 83 1006.9
20161210135021 82 67 14.0 16.0 0.00 0.00 0.00 82 1006.9
20161210134521 82 67 13.0 16.0 0.00 0.00 0.00 82 1006.9
20161210134021 82 69 12.0 16.0 0.00 0.00 0.00 82 1007.0
20161210133522 82 71 12.0 16.0 0.00 0.00 0.00 82 1007.0
20161210133021 82 71 15.0 16.0 0.00 0.00 0.00 82 1007.0
20161210132521 82 76 12.0 17.0 0.00 0.00 0.00 83 1007.1
20161210132021 82 71 14.0 17.0 0.00 0.00 0.00 83 1007.1
20161210131521 82 60 11.0 16.0 0.00 0.00 0.00 83 1007.1
20161210131021 83 74 13.0 17.0 0.00 0.00 0.00 81 1007.2
20161210130521 83 63 16.0 17.0 0.00 0.00 0.00 82 1007.2
20161210130021 83 61 13.0 16.0 0.00 0.00 0.00 82 1007.2
20161210125521 83 61 12.0 16.0 0.00 0.00 0.00 82 1007.2
20161210125021 83 80 12.0 17.0 0.00 0.00 0.00 83 1007.2
20161210124521 83 65 13.0 17.0 0.00 0.00 0.00 83 1007.2
20161210124021 82 64 14.0 16.0 0.00 0.00 0.00 83 1007.2
20161210123521 82 81 12.0 15.0 0.00 0.00 0.00 82 1007.2
20161210123021 83 76 12.0 14.0 0.00 0.00 0.00 82 1007.2
20161210122521 83 71 10.0 16.0 0.00 0.00 0.00 82 1007.1
20161210122021 83 82 14.0 17.0 0.00 0.00 0.00 82 1007.1
20161210121521 83 69 12.0 17.0 0.00 0.00 0.00 81 1007.1
20161210121021 83 76 13.0 17.0 0.00 0.00 0.00 82 1007.1
20161210120521 83 57 14.0 16.0 0.00 0.00 0.00 82 1007.1
20161210120021 83 66 14.0 16.0 0.00 0.00 0.00 83 1007.1
20161210115521 83 60 13.0 18.0 0.00 0.00 0.00 82 1007.1
20161210115021 83 64 12.0 18.0 0.00 0.00 0.00 82 1007.1
20161210114521 83 70 14.0 18.0 0.00 0.00 0.00 83 1007.1
20161210114021 83 61 16.0 16.0 0.00 0.00 0.00 83 1007.2
20161210113521 83 57 14.0 17.0 0.00 0.00 0.00 84 1007.2
20161210113021 83 75 13.0 17.0 0.00 0.00 0.00 83 1007.2
20161210112521 83 63 11.0 17.0 0.00 0.00 0.00 83 1007.1
20161210112021 83 63 15.0 16.0 0.00 0.00 0.00 83 1007.1
20161210111521 83 57 13.0 16.0 0.00 0.00 0.00 83 1007.1
20161210111021 83 56 12.0 16.0 0.00 0.00 0.00 84 1007.1
20161210110521 83 62 13.0 16.0 0.00 0.00 0.00 82 1007.1
20161210110021 83 69 13.0 17.0 0.00 0.00 0.00 83 1007.1
20161210105521 83 61 12.0 17.0 0.00 0.00 0.00 82 1007.1
20161210105021 83 66 12.0 14.0 0.00 0.00 0.00 83 1007.1
20161210104521 83 65 13.0 14.0 0.00 0.00 0.00 83 1007.1
20161210104021 83 64 11.0 14.0 0.00 0.00 0.00 83 1007.0
20161210103521 83 70 10.0 15.0 0.00 0.00 0.00 82 1007.0
20161210103021 83 69 13.0 15.0 0.00 0.00 0.00 83 1007.0
20161210102521 83 71 11.0 13.0 0.00 0.00 0.00 83 1007.0
20161210102021 83 59 13.0 13.0 0.00 0.00 0.00 83 1007.0
20161210101521 83 67 11.0 13.0 0.00 0.00 0.00 83 1007.0
20161210101021 83 63 9.0 14.0 0.00 0.00 0.00 83 1006.8
20161210100521 83 69 9.0 14.0 0.00 0.00 0.00 82 1006.8
20161210100021 83 52 14.0 14.0 0.00 0.00 0.00 82 1006.8
20161210095521 83 63 11.0 13.0 0.00 0.00 0.00 82 1006.7
20161210095021 83 64 10.0 12.0 0.00 0.00 0.00 83 1006.7
20161210094521 83 71 10.0 12.0 0.00 0.00 0.00 84 1006.7
20161210094021 83 67 10.0 13.0 0.00 0.00 0.00 83 1006.6
20161210093521 83 74 10.0 13.0 0.00 0.00 0.00 83 1006.6
20161210093021 83 73 10.0 12.0 0.00 0.00 0.00 83 1006.6
20161210092521 83 71 10.0 12.0 0.00 0.00 0.00 84 1006.4
20161210092021 83 71 9.0 14.0 0.00 0.00 0.00 83 1006.4
20161210091521 83 69 11.0 14.0 0.00 0.00 0.00 83 1006.4
20161210091021 83 61 11.0 12.0 0.00 0.00 0.00 83 1006.3
20161210090521 83 70 12.0 12.0 0.00 0.00 0.00 83 1006.3
20161210090021 83 74 7.0 12.0 0.00 0.00 0.00 83 1006.3
20161210085521 83 68 11.0 12.0 0.00 0.00 0.00 83 1006.2
20161210085021 83 82 10.0 12.0 0.00 0.00 0.00 83 1006.2
20161210084521 83 85 11.0 12.0 0.00 0.00 0.00 82 1006.2
20161210084021 83 90 10.0 13.0 0.00 0.00 0.00 82 1006.1
20161210083521 83 66 10.0 13.0 0.00 0.00 0.00 82 1006.1
20161210083021 83 76 11.0 13.0 0.00 0.00 0.00 82 1006.1
20161210082521 83 67 10.0 13.0 0.00 0.00 0.00 82 1006.1
20161210082021 83 82 9.0 12.0 0.00 0.00 0.00 82 1006.1
20161210081521 83 86 11.0 12.0 0.00 0.00 0.00 82 1006.1
20161210081021 83 79 12.0 12.0 0.00 0.00 0.00 82 1006.0
20161210080521 83 85 10.0 12.0 0.00 0.00 0.00 82 1006.0
20161210080021 83 80 11.0 12.0 0.00 0.00 0.00 82 1006.0
20161210075521 83 74 9.0 12.0 0.00 0.00 0.00 83 1005.9
20161210075021 83 65 10.0 12.0 0.00 0.00 0.00 82 1005.9
20161210074521 83 76 12.0 12.0 0.00 0.00 0.00 81 1005.9
20161210074021 83 76 12.0 12.0 0.00 0.00 0.00 82 1005.8
20161210073521 83 78 10.0 13.0 0.00 0.00 0.00 81 1005.8
20161210073021 83 84 10.0 13.0 0.00 0.00 0.00 81 1005.8
20161210072521 83 70 10.0 13.0 0.00 0.00 0.00 81 1005.7
20161210072021 83 84 11.0 14.0 0.00 0.00 0.00 80 1005.7
20161210071521 83 79 12.0 14.0 0.00 0.00 0.00 80 1005.7
20161210071021 83 78 10.0 14.0 0.00 0.00 0.00 80 1005.6
20161210070521 84 77 13.0 14.0 0.00 0.00 0.00 80 1005.7
20161210070021 84 78 10.0 13.0 0.00 0.00 0.00 82 1005.7
20161210065521 84 84 11.0 13.0 0.00 0.00 0.00 82 1005.6
20161210065021 84 76 11.0 13.0 0.00 0.00 0.00 82 1005.6
20161210064521 84 83 11.0 13.0 0.00 0.00 0.00 82 1005.6
20161210064021 84 72 12.0 13.0 0.00 0.00 0.00 82 1005.6
20161210063521 84 80 10.0 14.0 0.00 0.00 0.00 82 1005.6
20161210063021 84 80 12.0 14.0 0.00 0.00 0.00 82 1005.6
20161210062521 84 78 11.0 14.0 0.00 0.00 0.00 82 1005.5
20161210062021 84 78 12.0 15.0 0.00 0.00 0.00 81 1005.5
20161210061521 84 71 13.0 15.0 0.00 0.00 0.00 80 1005.5
20161210061021 85 72 14.0 14.0 0.00 0.00 0.00 81 1005.4
20161210060521 85 77 11.0 14.0 0.00 0.00 0.00 80 1005.4
20161210060021 85 83 14.0 14.0 0.00 0.00 0.00 82 1005.4
20161210055521 84 82 12.0 15.0 0.00 0.00 0.00 81 1005.3
20161210055021 84 80 11.0 15.0 0.00 0.00 0.00 81 1005.3
20161210054521 85 76 12.0 15.0 0.00 0.00 0.00 81 1005.3
20161210054021 85 63 13.0 16.0 0.00 0.00 0.00 81 1005.2
20161210053521 85 76 13.0 16.0 0.00 0.00 0.00 80 1005.2
20161210053021 85 82 14.0 16.0 0.00 0.00 0.00 82 1005.2
20161210052521 85 76 14.0 17.0 0.00 0.00 0.00 81 1005.1
20161210052021 85 80 13.0 17.0 0.00 0.00 0.00 81 1005.1
20161210051521 85 77 13.0 16.0 0.00 0.00 0.00 82 1005.1
20161210051021 85 65 13.0 16.0 0.00 0.00 0.00 80 1005.1
20161210050521 85 79 12.0 16.0 0.00 0.00 0.00 80 1005.1
20161210050021 85 78 11.0 16.0 0.00 0.00 0.00 80 1005.1
20161210045521 85 82 14.0 16.0 0.00 0.00 0.00 80 1005.2
20161210045021 85 64 12.0 15.0 0.00 0.00 0.00 80 1005.2
20161210044521 85 78 12.0 15.0 0.00 0.00 0.00 81 1005.2
20161210044021 85 78 13.0 15.0 0.00 0.00 0.00 80 1005.3
20161210043521 85 78 13.0 15.0 0.00 0.00 0.00 81 1005.3
20161210043021 85 66 12.0 16.0 0.00 0.00 0.00 82 1005.3
20161210042521 85 67 14.0 18.0 0.00 0.00 0.00 82 1005.6
20161210042021 85 73 14.0 18.0 0.00 0.00 0.00 81 1005.6
20161210041521 85 73 14.0 15.0 0.00 0.00 0.00 80 1005.6
20161210041021 85 76 13.0 15.0 0.00 0.00 0.00 81 1005.4
20161210040521 85 80 12.0 16.0 0.00 0.00 0.00 80 1005.4
20161210040021 85 80 15.0 16.0 0.00 0.00 0.00 80 1005.4
20161210035521 85 74 11.0 15.0 0.00 0.00 0.00 83 1005.5
20161210035021 85 72 11.0 17.0 0.00 0.00 0.00 82 1005.5
20161210034521 84 60 12.0 18.0 0.00 0.00 0.00 81 1005.5
20161210034021 85 61 17.0 18.0 0.00 0.00 0.00 82 1005.7
20161210033520 85 61 14.0 15.0 0.00 0.00 0.00 82 1005.7
20161210033021 85 78 12.0 17.0 0.00 0.00 0.00 80 1005.7
20161210032521 85 79 11.0 17.0 0.00 0.00 0.00 79 1006.0
20161210032021 86 77 12.0 15.0 0.00 0.00 0.00 81 1006.0
20161210031521 86 69 12.0 15.0 0.00 0.00 0.00 81 1006.0
20161210031021 86 71 11.0 14.0 0.00 0.00 0.00 81 1006.2
20161210030521 86 82 12.0 14.0 0.00 0.00 0.00 80 1006.2
20161210030021 85 76 12.0 15.0 0.00 0.00 0.00 80 1006.2
20161210025521 85 80 14.0 15.0 0.00 0.00 0.00 80 1006.4
20161210025021 85 66 11.0 15.0 0.00 0.00 0.00 81 1006.4
20161210024521 85 80 13.0 16.0 0.00 0.00 0.00 83 1006.4
20161210024021 85 65 11.0 16.0 0.00 0.00 0.00 84 1006.7
20161210023521 85 65 13.0 16.0 0.00 0.00 0.00 84 1006.7
20161210023021 84 60 13.0 16.0 0.00 0.00 0.00 83 1006.7
20161210022521 85 72 13.0 15.0 0.00 0.00 0.00 82 1007.0
20161210022021 85 61 12.0 14.0 0.00 0.00 0.00 80 1007.0
20161210021521 86 65 12.0 16.0 0.00 0.00 0.00 81 1007.0